Location: Baumgartsau
(48.4586°N, 14.0864°E)
Time: 10:14:36
(UTC+00:00)

COSMOS 2406 - Pass Details

Date: 09 April 2020
Orbit: 842 x 865 km, 71.0° (Epoch: 25 May)

Event Time Altitude Azimuth Distance (km) Brightness Sun altitude
Exits shadow 20:55:04 22° 225° (SW) 1,778 4.8 -26.7°
Maximum altitude 20:58:46 63° 301° (WNW) 944 3.5 -27.1°
Drops below altitude 10° 21:04:27 10° 23° (NNE) 2,494 6.0 -27.6°
Sets 21:06:58 0° 27° (NNE) 3,438 6.7 -27.9°
